Location: Prague
(50.0830°N, 14.4670°E)
Time: 19:49:12
(UTC+02:00)

ISS - Pass Details

Date: 01 October 2021
Orbit: 417 x 423 km, 51.6° (Epoch: 28 October)

Event Time Altitude Azimuth Distance (km) Brightness Sun altitude
Rises 20:15:53 0° 287° (WNW) 2,367 1.9 -16.1°
Reaches altitude 10° 20:18:01 10° 281° (WNW) 1,501 0.4 -16.4°
Maximum altitude 20:21:15 45° 208° (SSW) 579 -3.0 -16.9°
Enters shadow 20:22:18 33° 160° (SSE) 728 -2.9 -17.1°
